Cambridge Bay Gsn,

7:41 AM MDT on July 21, 2017 (GMT -0600)
Cambridge Bay Gsn

Weather History for CXCM - January, 2014

Change the Weather History Date:

Sunday, January 19, 2014

  Actual Average Record
Temperature  
Mean Temperature -41 °F -  
Max Temperature -38 °F - - ()
Min Temperature -44 °F - - ()
Degree Days  
Heating Degree Days 106    
Moisture  
Dew Point -49 °F    
Average Humidity 61    
Maximum Humidity 67    
Minimum Humidity 43    
Precipitation  
Precipitation 0.01 in - - ()
Sea Level Pressure  
Sea Level Pressure 30.37 in    
Wind  
Wind Speed 5 mph ()    
Max Wind Speed 9 mph    
Max Gust Speed -    
T = Trace of Precipitation, MM = Missing Value Source: Averaged Metar Reports

Daily Weather History Graph

Daily Weather History Graph

Search for Another Location

Airport or City:

Trip Planner

Search our weather history database for the weather conditions in past years. The results will help you decide how hot, cold, wet, or windy it might be!

Date:

Astronomy

Jan. 19, 2014 Rise Set
Actual Time 10:40 AM MST 1:43 PM MST
Civil Twilight 8:54 AM MST 3:28 PM MST
Nautical Twilight 7:32 AM MST 4:51 PM MST
Astronomical Twilight 6:21 AM MST 6:02 PM MST
Moon 8:22 PM MST (1/19) 9:25 AM MST (1/19)
Length of Visible Light 6h 34m
Length of Day
3h 02m
Waning Gibbous, 89% of the Moon is Illuminated
Jan 19
Waning Gibbous
Jan 23
Last Quarter
Jan 30
New
Feb 6
First Quarter
Feb 14
Full

Hourly Weather History & Observations

Time (MST) Temp. Windchill Dew Point Humidity Pressure Visibility Wind Dir Wind Speed Gust Speed Precip Events Conditions
12:00 AM -42.5 °F -62.0 °F -50.6 °F 63% 30.30 in - NNE 5.8 mph - N/A   Unknown
1:00 AM -42.0 °F -63.5 °F -50.1 °F 63% 30.30 in - NE 6.9 mph - N/A   Unknown
2:00 AM -40.4 °F - -48.3 °F 64% 30.32 in - West 2.3 mph - N/A   Unknown
3:00 AM -41.4 °F -60.7 °F -49.5 °F 63% 30.32 in - NW 5.8 mph - N/A   Unknown
4:00 AM -40.2 °F -64.7 °F -48.1 °F 64% 30.35 in - WNW 9.2 mph - N/A   Unknown
5:00 AM -43 °F - -51 °F 45% 30.37 in - NNW 8.1 mph - -  
5:00 AM -42.5 °F -66.0 °F -50.6 °F 63% 30.37 in - NW 8.1 mph - N/A   Unknown
6:00 AM -41.8 °F -66.7 °F -49.9 °F 63% 30.37 in - NNW 9.2 mph - N/A   Unknown
7:00 AM -38.4 °F -57.1 °F -45.8 °F 67% 30.36 in - NE 5.8 mph - N/A   Unknown
8:00 AM -38.6 °F -51.9 °F -46.3 °F 65% 30.36 in - North 3.5 mph - N/A   Unknown
9:00 AM -40.5 °F -57.2 °F -48.5 °F 64% 30.37 in - WSW 4.6 mph - N/A   Unknown
10:00 AM -39.6 °F -62.5 °F -47.4 °F 65% 30.39 in - West 8.1 mph - N/A   Unknown
11:00 AM -40 °F - -48 °F 43% 30.39 in - WNW 5.8 mph - -  
11:00 AM -40.2 °F -59.3 °F -48.3 °F 64% 30.39 in - NW 5.8 mph - 0.01 in   Unknown
12:00 PM -38.6 °F -59.4 °F -46.1 °F 66% 30.40 in - WNW 6.9 mph - N/A   Unknown
1:00 PM -39.5 °F -62.2 °F -47.2 °F 65% 30.40 in - NW 8.1 mph - N/A   Unknown
2:00 PM -39.6 °F - -47.6 °F 64% 30.40 in - WSW 1.2 mph - N/A   Unknown
3:00 PM -40.4 °F - -48.1 °F 65% 30.41 in - WSW 2.3 mph - N/A   Unknown
4:00 PM -40.4 °F -54.0 °F -48.3 °F 64% 30.41 in - West 3.5 mph - N/A   Unknown
5:00 PM -41 °F - -49 °F 46% 30.41 in - West 4.6 mph - -  
5:00 PM -40.7 °F -57.4 °F -48.6 °F 64% 30.41 in - West 4.6 mph - N/A   Unknown
6:00 PM -40.7 °F - -48.8 °F 64% 30.39 in - Calm Calm - N/A   Unknown
7:00 PM -40.4 °F - -48.3 °F 64% 30.38 in - Calm Calm - N/A   Unknown
8:00 PM -40.9 °F - -49.0 °F 64% 30.38 in - Calm Calm - N/A   Unknown
9:00 PM -40.5 °F -57.2 °F -48.5 °F 64% 30.37 in - SW 4.6 mph - N/A   Unknown
10:00 PM -40.2 °F - -48.1 °F 64% 30.36 in - Calm Calm - N/A   Unknown
11:00 PM -44 °F - -52 °F 44% 30.36 in - ENE 3.5 mph - -  
11:00 PM -43.6 °F -57.7 °F -51.9 °F 63% 30.36 in - NE 3.5 mph - N/A   Unknown